This is the latest recevied weather packets stored in our database for station/object KD4EED. If no packets are shown the sender has not sent any weather packets the latest 10 day(s).
| Time | Temp. | Humidity | Pressure | Rain* | Wind** | Luminosity | Snow |
|---|---|---|---|---|---|---|---|
| 1788395682 | 27.78° C | 49% | 1011.6 hPa | - | - | 112 W/m² | - |
| 1788395378 | 27.78° C | 49% | 1011.5 hPa | - | - | 124 W/m² | - |
| 1788395072 | 27.78° C | 50% | 1011.6 hPa | - | - | 146 W/m² | - |
| 1788394772 | 27.78° C | 49% | 1011.5 hPa | - | - | 165 W/m² | - |
| 1788394472 | 27.78° C | 48% | 1011.7 hPa | - | - | 189 W/m² | - |
| 1788394172 | 27.22° C | 48% | 1011.5 hPa | - | - | 204 W/m² | - |
| 1788393867 | 27.78° C | 45% | 1011.6 hPa | - | - | 213 W/m² | - |
| 1788393565 | 28.33° C | 45% | 1011.6 hPa | - | - | 224 W/m² | - |
| 1788393261 | 28.33° C | 46% | 1011.6 hPa | - | - | 236 W/m² | - |
| 1788392960 | 28.33° C | 45% | 1011.6 hPa | - | - | 252 W/m² | - |
| 1788392656 | 27.78° C | 46% | 1011.9 hPa | - | - | 268 W/m² | - |
| 1788392355 | 27.78° C | 46% | 1011.7 hPa | - | - | 285 W/m² | - |
| 1788392049 | 27.78° C | 50% | 1011.8 hPa | - | - | 302 W/m² | - |
| 1788391748 | 27.22° C | 49% | 1012 hPa | - | - | 318 W/m² | - |
| 1788391443 | 27.78° C | 48% | 1011.9 hPa | - | - | 336 W/m² | - |
| 1788391143 | 27.78° C | 50% | 1011.9 hPa | - | - | 351 W/m² | - |
| 1788390838 | 27.78° C | 51% | 1011.9 hPa | - | - | 366 W/m² | - |
| 1788390532 | 27.78° C | 51% | 1012.1 hPa | - | - | 377 W/m² | - |
| 1788390232 | 27.78° C | 51% | 1012 hPa | - | - | 389 W/m² | - |
| 1788389931 | 28.33° C | 51% | 1012 hPa | - | - | 396 W/m² | - |
| 1788389627 | 28.33° C | 49% | 1011.9 hPa | - | - | 403 W/m² | - |
| 1788389325 | 27.78° C | 50% | 1011.9 hPa | - | - | 409 W/m² | - |
| 1788389020 | 28.33° C | 49% | 1012.1 hPa | - | - | 415 W/m² | - |
| 1788388718 | 28.33° C | 50% | 1012.1 hPa | - | - | 426 W/m² | - |
| 1788388417 | 28.33° C | 50% | 1012.4 hPa | - | - | 437 W/m² | - |
* Rain since midnight (hover to see other rain measurements)
** Current wind speed in m/s (hover to see current wind gust speed)